Year,Month,Day,Hour,Minute,Value (Times are PST for temperature in C)
2014,10,22,00,00,11.70
2014,10,22,00,01,11.70
2014,10,22,00,02,11.70
2014,10,22,00,03,11.70
2014,10,22,00,04,11.70
2014,10,22,00,05,11.70
2014,10,22,00,06,11.70
2014,10,22,00,07,11.70
2014,10,22,00,08,11.70
2014,10,22,00,09,11.70
2014,10,22,00,10,11.70
2014,10,22,00,11,11.70
2014,10,22,00,12,11.70
2014,10,22,00,13,11.70
2014,10,22,00,14,11.70
2014,10,22,00,15,11.70
2014,10,22,00,16,11.70
2014,10,22,00,17,11.70
2014,10,22,00,18,11.70
2014,10,22,00,19,11.70
2014,10,22,00,20,11.70
2014,10,22,00,21,11.70
2014,10,22,00,22,11.70
2014,10,22,00,23,11.70
2014,10,22,00,24,11.70
2014,10,22,00,25,11.70
2014,10,22,00,26,11.70
2014,10,22,00,27,11.70
2014,10,22,00,28,11.70
2014,10,22,00,29,11.70
2014,10,22,00,30,11.70
2014,10,22,00,31,11.60
2014,10,22,00,32,11.60
2014,10,22,00,33,11.60
2014,10,22,00,34,11.60
2014,10,22,00,35,11.60
2014,10,22,00,36,11.60
2014,10,22,00,37,11.70
2014,10,22,00,38,11.70
2014,10,22,00,39,11.60
2014,10,22,00,40,11.60
2014,10,22,00,41,11.60
2014,10,22,00,42,11.60
2014,10,22,00,43,11.60
2014,10,22,00,44,11.70
2014,10,22,00,45,11.70
2014,10,22,00,46,11.70
2014,10,22,00,47,11.70
2014,10,22,00,48,11.60
2014,10,22,00,49,11.60
2014,10,22,00,50,11.70
2014,10,22,00,51,11.70
2014,10,22,00,52,11.60
2014,10,22,00,53,11.60
2014,10,22,00,54,11.60
2014,10,22,00,55,11.60
2014,10,22,00,56,11.60
2014,10,22,00,57,11.60
2014,10,22,00,58,11.60
2014,10,22,00,59,11.60
2014,10,22,01,00,11.70
2014,10,22,01,01,11.70
2014,10,22,01,02,11.70
2014,10,22,01,03,11.70
2014,10,22,01,04,11.70
2014,10,22,01,05,11.70
2014,10,22,01,06,11.60
2014,10,22,01,07,11.60
2014,10,22,01,08,11.60
2014,10,22,01,09,11.60
2014,10,22,01,10,11.60
2014,10,22,01,11,11.60
2014,10,22,01,12,11.60
2014,10,22,01,13,11.60
2014,10,22,01,14,11.60
2014,10,22,01,15,11.60
2014,10,22,01,16,11.60
2014,10,22,01,17,11.70
2014,10,22,01,18,11.70
2014,10,22,01,19,11.70
2014,10,22,01,20,11.70
2014,10,22,01,21,11.70
2014,10,22,01,22,11.60
2014,10,22,01,23,11.60
2014,10,22,01,24,11.60
2014,10,22,01,25,11.60
2014,10,22,01,26,11.60
2014,10,22,01,27,11.70
2014,10,22,01,28,11.70
2014,10,22,01,29,11.70
2014,10,22,01,30,11.60
2014,10,22,01,31,11.60
2014,10,22,01,32,11.60
2014,10,22,01,33,11.60
2014,10,22,01,34,11.60
2014,10,22,01,35,11.60
2014,10,22,01,36,11.60
2014,10,22,01,37,11.60
2014,10,22,01,38,11.60
2014,10,22,01,39,11.60
2014,10,22,01,40,11.60
2014,10,22,01,41,11.60
2014,10,22,01,42,11.60
2014,10,22,01,43,11.60
2014,10,22,01,44,11.60
2014,10,22,01,45,11.60
2014,10,22,01,46,11.60
2014,10,22,01,47,11.60
2014,10,22,01,48,11.60
2014,10,22,01,49,11.60
2014,10,22,01,50,11.60
2014,10,22,01,51,11.60
2014,10,22,01,52,11.60
2014,10,22,01,53,11.60
2014,10,22,01,54,11.60
2014,10,22,01,55,11.60
2014,10,22,01,56,11.60
2014,10,22,01,57,11.60
2014,10,22,01,58,11.60
2014,10,22,01,59,11.60
2014,10,22,02,00,11.60
2014,10,22,02,01,11.60
2014,10,22,02,02,11.60
2014,10,22,02,03,11.60
2014,10,22,02,04,11.60
2014,10,22,02,05,11.60
2014,10,22,02,06,11.60
2014,10,22,02,07,11.60
2014,10,22,02,08,11.60
2014,10,22,02,09,11.60
2014,10,22,02,10,11.60
2014,10,22,02,11,11.60
2014,10,22,02,12,11.60
2014,10,22,02,13,11.60
2014,10,22,02,14,11.60
2014,10,22,02,15,11.60
2014,10,22,02,16,11.60
2014,10,22,02,17,11.60
2014,10,22,02,18,11.60
2014,10,22,02,19,11.60
2014,10,22,02,20,11.60
2014,10,22,02,21,11.60
2014,10,22,02,22,11.60
2014,10,22,02,23,11.60
2014,10,22,02,24,11.60
2014,10,22,02,25,11.60
2014,10,22,02,26,11.60
2014,10,22,02,27,11.60
2014,10,22,02,28,11.60
2014,10,22,02,29,11.60
2014,10,22,02,30,11.60
2014,10,22,02,31,11.60
2014,10,22,02,32,11.60
2014,10,22,02,33,11.60
2014,10,22,02,34,11.60
2014,10,22,02,35,11.70
2014,10,22,02,36,11.70
2014,10,22,02,37,11.70
2014,10,22,02,38,11.70
2014,10,22,02,39,11.70
2014,10,22,02,40,11.70
2014,10,22,02,41,11.70
2014,10,22,02,42,11.70
2014,10,22,02,43,11.70
2014,10,22,02,44,11.70
2014,10,22,02,45,11.70
2014,10,22,02,46,11.70
2014,10,22,02,47,11.70
2014,10,22,02,48,11.70
2014,10,22,02,49,11.70
2014,10,22,02,50,11.70
2014,10,22,02,51,11.70
2014,10,22,02,52,11.70
2014,10,22,02,53,11.70
2014,10,22,02,54,11.70
2014,10,22,02,55,11.70
2014,10,22,02,56,11.70
2014,10,22,02,57,11.70
2014,10,22,02,58,11.70
2014,10,22,02,59,11.70
2014,10,22,03,00,11.70
2014,10,22,03,01,11.70
2014,10,22,03,02,11.70
2014,10,22,03,03,11.70
2014,10,22,03,04,11.70
2014,10,22,03,05,11.70
2014,10,22,03,06,11.70
2014,10,22,03,07,11.70
2014,10,22,03,08,11.70
2014,10,22,03,09,11.70
2014,10,22,03,10,11.70
2014,10,22,03,11,11.70
2014,10,22,03,12,11.70
2014,10,22,03,13,11.70
2014,10,22,03,14,11.60
2014,10,22,03,15,11.60
2014,10,22,03,16,11.60
2014,10,22,03,17,11.60
2014,10,22,03,18,11.60
2014,10,22,03,19,11.60
2014,10,22,03,20,11.60
2014,10,22,03,21,11.60
2014,10,22,03,22,11.60
2014,10,22,03,23,11.60
2014,10,22,03,24,11.70
2014,10,22,03,25,11.70
2014,10,22,03,26,11.70
2014,10,22,03,27,11.70
2014,10,22,03,28,11.70
2014,10,22,03,29,11.70
2014,10,22,03,30,11.70
2014,10,22,03,31,11.70
2014,10,22,03,32,11.70
2014,10,22,03,33,11.70
2014,10,22,03,34,11.70
2014,10,22,03,35,11.70
2014,10,22,03,36,11.70
2014,10,22,03,37,11.70
2014,10,22,03,38,11.70
2014,10,22,03,39,11.70
2014,10,22,03,40,11.70
2014,10,22,03,41,11.70
2014,10,22,03,42,11.70
2014,10,22,03,43,11.70
2014,10,22,03,44,11.70
2014,10,22,03,45,11.70
2014,10,22,03,46,11.80
2014,10,22,03,47,11.80
2014,10,22,03,48,11.80
2014,10,22,03,49,11.80
2014,10,22,03,50,11.80
2014,10,22,03,51,11.80
2014,10,22,03,52,11.80
2014,10,22,03,53,11.80
2014,10,22,03,54,11.80
2014,10,22,03,55,11.80
2014,10,22,03,56,11.80
2014,10,22,03,57,11.80
2014,10,22,03,58,11.80
2014,10,22,03,59,11.80
2014,10,22,04,00,11.80
2014,10,22,04,01,11.80
2014,10,22,04,02,11.80
2014,10,22,04,03,11.80
2014,10,22,04,04,11.80
2014,10,22,04,05,11.80
2014,10,22,04,06,11.80
2014,10,22,04,07,11.80
2014,10,22,04,08,11.80
2014,10,22,04,09,11.80
2014,10,22,04,10,11.80
2014,10,22,04,11,11.80
2014,10,22,04,12,11.80
2014,10,22,04,13,11.80
2014,10,22,04,14,11.80
2014,10,22,04,15,11.80
2014,10,22,04,16,11.80
2014,10,22,04,17,11.80
2014,10,22,04,18,11.80
2014,10,22,04,19,11.80
2014,10,22,04,20,11.80
2014,10,22,04,21,11.80
2014,10,22,04,22,11.80
2014,10,22,04,23,11.80
2014,10,22,04,24,11.80
2014,10,22,04,25,11.80
2014,10,22,04,26,11.80
2014,10,22,04,27,11.70
2014,10,22,04,28,11.70
2014,10,22,04,29,11.70
2014,10,22,04,30,11.70
2014,10,22,04,31,11.70
2014,10,22,04,32,11.70
2014,10,22,04,33,11.70
2014,10,22,04,34,11.70
2014,10,22,04,35,11.70
2014,10,22,04,36,11.70
2014,10,22,04,37,11.70
2014,10,22,04,38,11.70
2014,10,22,04,39,11.80
2014,10,22,04,40,11.80
2014,10,22,04,41,11.80
2014,10,22,04,42,11.80
2014,10,22,04,43,11.80
2014,10,22,04,44,11.80
2014,10,22,04,45,11.80
2014,10,22,04,46,11.80
2014,10,22,04,47,11.80
2014,10,22,04,48,11.80
2014,10,22,04,49,11.80
2014,10,22,04,50,11.80
2014,10,22,04,51,11.80
2014,10,22,04,52,11.80
2014,10,22,04,53,11.80
2014,10,22,04,54,11.80
2014,10,22,04,55,11.80
2014,10,22,04,56,11.80
2014,10,22,04,57,11.80
2014,10,22,04,58,11.80
2014,10,22,04,59,11.80
2014,10,22,05,00,11.80
2014,10,22,05,01,11.80
2014,10,22,05,02,11.80
2014,10,22,05,03,11.80
2014,10,22,05,04,11.80
2014,10,22,05,05,11.80
2014,10,22,05,06,11.80
2014,10,22,05,07,11.80
2014,10,22,05,08,11.80
2014,10,22,05,09,11.70
2014,10,22,05,10,11.70
2014,10,22,05,11,11.70
2014,10,22,05,12,11.70
2014,10,22,05,13,11.70
2014,10,22,05,14,11.70
2014,10,22,05,15,11.70
2014,10,22,05,16,11.70
2014,10,22,05,17,11.70
2014,10,22,05,18,11.70
2014,10,22,05,19,11.70
2014,10,22,05,20,11.70
2014,10,22,05,21,11.70
2014,10,22,05,22,11.70
2014,10,22,05,23,11.70
2014,10,22,05,24,11.70
2014,10,22,05,25,11.70
2014,10,22,05,26,11.60
2014,10,22,05,27,11.60
2014,10,22,05,28,11.60
2014,10,22,05,29,11.60
2014,10,22,05,30,11.60
2014,10,22,05,31,11.60
2014,10,22,05,32,11.60
2014,10,22,05,33,11.60
2014,10,22,05,34,11.60
2014,10,22,05,35,11.60
2014,10,22,05,36,11.60
2014,10,22,05,37,11.60
2014,10,22,05,38,11.60
2014,10,22,05,39,11.60
2014,10,22,05,40,11.60
2014,10,22,05,41,11.60
2014,10,22,05,42,11.60
2014,10,22,05,43,11.60
2014,10,22,05,44,11.60
2014,10,22,05,45,11.60
2014,10,22,05,46,11.60
2014,10,22,05,47,11.60
2014,10,22,05,48,11.60
2014,10,22,14,40,12.10
2014,10,22,14,41,12.10
2014,10,22,14,42,12.10
2014,10,22,14,43,12.10
2014,10,22,14,44,12.10
2014,10,22,14,45,12.10
2014,10,22,14,46,12.10
2014,10,22,14,47,12.10
2014,10,22,14,48,12.10
2014,10,22,14,49,12.10
2014,10,22,14,50,12.10
2014,10,22,14,51,12.10
2014,10,22,14,52,12.10
2014,10,22,14,53,12.10
2014,10,22,14,54,12.10
2014,10,22,14,55,12.10
2014,10,22,14,56,12.10
2014,10,22,14,57,12.10
2014,10,22,14,58,12.10
2014,10,22,14,59,12.10
2014,10,22,15,00,12.10
2014,10,22,15,01,12.10
2014,10,22,15,02,12.00
2014,10,22,15,03,12.00
2014,10,22,15,04,12.00
2014,10,22,15,05,12.00
2014,10,22,15,06,12.00
2014,10,22,15,07,12.00
2014,10,22,15,08,12.00
2014,10,22,15,09,12.00
2014,10,22,15,10,12.00
2014,10,22,15,11,12.00
2014,10,22,15,12,12.00
2014,10,22,15,13,12.00
2014,10,22,15,14,12.00
2014,10,22,15,15,12.00
2014,10,22,15,16,12.00
2014,10,22,15,17,11.90
2014,10,22,15,18,11.90
2014,10,22,15,19,11.90
2014,10,22,15,20,11.90
2014,10,22,15,21,11.90
2014,10,22,15,22,11.90
2014,10,22,15,23,11.90
2014,10,22,15,24,11.90
2014,10,22,15,25,11.90
2014,10,22,15,26,11.90
2014,10,22,15,27,11.90
2014,10,22,15,28,11.90
2014,10,22,15,29,11.90
2014,10,22,15,30,11.90
2014,10,22,15,31,11.80
2014,10,22,15,32,11.80
2014,10,22,15,33,11.80
2014,10,22,15,34,11.80
2014,10,22,15,35,11.80
2014,10,22,15,36,11.80
2014,10,22,15,37,11.80
2014,10,22,15,38,11.80
2014,10,22,15,39,11.90
2014,10,22,15,40,11.90
2014,10,22,15,41,11.90
2014,10,22,15,42,11.90
2014,10,22,15,43,11.90
2014,10,22,15,44,11.90
2014,10,22,15,45,11.90
2014,10,22,15,46,11.90
2014,10,22,15,47,11.80
2014,10,22,15,48,11.90
2014,10,22,15,49,11.90
2014,10,22,15,50,11.90
2014,10,22,15,51,11.90
2014,10,22,15,52,11.90
2014,10,22,15,53,11.90
2014,10,22,15,54,11.90
2014,10,22,15,55,11.90
2014,10,22,15,56,11.90
2014,10,22,15,57,11.90
2014,10,22,15,58,11.90
2014,10,22,15,59,11.90
2014,10,22,16,00,11.90
2014,10,22,16,01,11.90
2014,10,22,16,02,11.90
2014,10,22,16,03,11.90
2014,10,22,16,04,11.90
2014,10,22,16,05,11.90
2014,10,22,16,06,11.90
2014,10,22,16,07,11.90
2014,10,22,16,08,11.90
2014,10,22,16,09,11.90
2014,10,22,16,10,11.90
2014,10,22,16,11,11.90
2014,10,22,16,12,11.80
2014,10,22,16,13,11.80
2014,10,22,16,14,11.80
2014,10,22,16,15,11.80
2014,10,22,16,16,11.80
2014,10,22,16,17,11.80
2014,10,22,16,18,11.80
2014,10,22,16,19,11.80
2014,10,22,16,20,11.80
2014,10,22,16,21,11.80
2014,10,22,16,22,11.80
2014,10,22,16,23,11.80
2014,10,22,16,24,11.80
2014,10,22,16,25,11.80
2014,10,22,16,26,11.80
2014,10,22,16,27,11.80
2014,10,22,16,28,11.80
2014,10,22,16,29,11.80
2014,10,22,16,30,11.80
2014,10,22,16,31,11.80
2014,10,22,16,32,11.70
2014,10,22,16,33,11.70
2014,10,22,16,34,11.70
2014,10,22,16,35,11.70
2014,10,22,16,36,11.70
2014,10,22,16,37,11.70
2014,10,22,16,38,11.70
2014,10,22,16,39,11.70
2014,10,22,16,40,11.70
2014,10,22,16,41,11.70
2014,10,22,16,42,11.70
2014,10,22,16,43,11.70
2014,10,22,16,44,11.70
2014,10,22,16,45,11.60
2014,10,22,16,46,11.60
2014,10,22,16,47,11.60
2014,10,22,16,48,11.60
2014,10,22,16,49,11.60
2014,10,22,16,50,11.60
2014,10,22,16,51,11.60
2014,10,22,16,52,11.60
2014,10,22,16,53,11.60
2014,10,22,16,54,11.60
2014,10,22,16,55,11.60
2014,10,22,16,56,11.50
2014,10,22,16,57,11.60
2014,10,22,16,58,11.60
2014,10,22,16,59,11.60
2014,10,22,17,00,11.60
2014,10,22,17,01,11.60
2014,10,22,17,02,11.60
2014,10,22,17,03,11.70
2014,10,22,17,04,11.70
2014,10,22,17,05,11.70
2014,10,22,17,06,11.70
2014,10,22,17,07,11.70
2014,10,22,17,08,11.70
2014,10,22,17,09,11.70
2014,10,22,17,10,11.70
2014,10,22,17,11,11.70
2014,10,22,17,12,11.70
2014,10,22,17,13,11.70
2014,10,22,17,14,11.70
2014,10,22,17,15,11.70
2014,10,22,17,16,11.70
2014,10,22,17,17,11.70
2014,10,22,17,18,11.70
2014,10,22,17,19,11.60
2014,10,22,17,20,11.60
2014,10,22,17,21,11.60
2014,10,22,17,22,11.60
2014,10,22,17,23,11.60
2014,10,22,17,24,11.60
2014,10,22,17,25,11.60
2014,10,22,17,26,11.60
2014,10,22,17,27,11.60
2014,10,22,17,28,11.60
2014,10,22,17,29,11.60
2014,10,22,17,30,11.50
2014,10,22,17,31,11.50
2014,10,22,17,32,11.50
2014,10,22,17,33,11.50
2014,10,22,17,34,11.40
2014,10,22,17,35,11.40
2014,10,22,17,36,11.40
2014,10,22,17,37,11.40
2014,10,22,17,38,11.40
2014,10,22,17,39,11.40
2014,10,22,17,40,11.40
2014,10,22,17,41,11.30
2014,10,22,17,42,11.30
2014,10,22,17,43,11.30
2014,10,22,17,44,11.30
2014,10,22,17,45,11.30
2014,10,22,17,46,11.30
2014,10,22,17,47,11.30
2014,10,22,17,48,11.30
2014,10,22,17,49,11.30
2014,10,22,17,50,11.30
2014,10,22,17,51,11.20
2014,10,22,17,52,11.20
2014,10,22,17,53,11.20
2014,10,22,17,54,11.20
2014,10,22,17,55,11.20
2014,10,22,17,56,11.20
2014,10,22,17,57,11.20
2014,10,22,17,58,11.20
2014,10,22,17,59,11.10
2014,10,22,18,00,11.10
2014,10,22,18,01,11.10
2014,10,22,18,02,11.10
2014,10,22,18,03,11.10
2014,10,22,18,04,11.10
2014,10,22,18,05,11.10
2014,10,22,18,06,11.10
2014,10,22,18,07,11.10
2014,10,22,18,08,11.10
2014,10,22,18,09,11.00
2014,10,22,18,10,11.00
2014,10,22,18,11,11.00
2014,10,22,18,12,11.00
2014,10,22,18,13,11.00
2014,10,22,18,14,11.00
2014,10,22,18,15,10.90
2014,10,22,18,16,10.90
2014,10,22,18,17,10.90
2014,10,22,18,18,10.90
2014,10,22,18,19,10.90
2014,10,22,18,20,10.90
2014,10,22,18,21,10.90
2014,10,22,18,22,10.90
2014,10,22,18,23,10.90
2014,10,22,18,24,10.90
2014,10,22,18,25,10.90
2014,10,22,18,26,10.80
2014,10,22,18,27,10.80
2014,10,22,18,28,10.80
2014,10,22,18,29,10.80
2014,10,22,18,30,10.80
2014,10,22,18,31,10.80
2014,10,22,18,32,10.80
2014,10,22,18,33,10.80
2014,10,22,18,34,10.80
2014,10,22,18,35,10.80
2014,10,22,18,36,10.70
2014,10,22,18,37,10.70
2014,10,22,18,38,10.70
2014,10,22,18,39,10.70
2014,10,22,18,40,10.70
2014,10,22,18,41,10.70
2014,10,22,18,42,10.70
2014,10,22,18,43,10.70
2014,10,22,18,44,10.70
2014,10,22,18,45,10.70
2014,10,22,18,46,10.70
2014,10,22,18,47,10.70
2014,10,22,18,48,10.60
2014,10,22,18,49,10.60
2014,10,22,18,50,10.60
2014,10,22,18,51,10.60
2014,10,22,18,52,10.60
2014,10,22,18,53,10.60
2014,10,22,18,54,10.60
2014,10,22,18,55,10.60
2014,10,22,18,56,10.60
2014,10,22,18,57,10.60
2014,10,22,18,58,10.50
2014,10,22,18,59,10.50
2014,10,22,19,00,10.50
2014,10,22,19,01,10.50
2014,10,22,19,02,10.50
2014,10,22,19,03,10.50
2014,10,22,19,04,10.50
2014,10,22,19,05,10.50
2014,10,22,19,06,10.50
2014,10,22,19,07,10.50
2014,10,22,19,08,10.50
2014,10,22,19,09,10.50
2014,10,22,19,10,10.50
2014,10,22,19,11,10.50
2014,10,22,19,12,10.50
2014,10,22,19,13,10.50
2014,10,22,19,14,10.50
2014,10,22,19,15,10.50
2014,10,22,19,16,10.50
2014,10,22,19,17,10.50
2014,10,22,19,18,10.50
2014,10,22,19,19,10.60
2014,10,22,19,20,10.60
2014,10,22,19,21,10.60
2014,10,22,19,22,10.60
2014,10,22,19,23,10.60
2014,10,22,19,24,10.60
2014,10,22,19,25,10.60
2014,10,22,19,26,10.60
2014,10,22,19,27,10.60
2014,10,22,19,28,10.50
2014,10,22,19,29,10.50
2014,10,22,19,30,10.50
2014,10,22,19,31,10.50
2014,10,22,19,32,10.50
2014,10,22,19,33,10.50
2014,10,22,19,34,10.50
2014,10,22,19,35,10.50
2014,10,22,19,36,10.50
2014,10,22,19,37,10.50
2014,10,22,19,38,10.50
2014,10,22,19,39,10.50
2014,10,22,19,40,10.50
2014,10,22,19,41,10.40
2014,10,22,19,42,10.40
2014,10,22,19,43,10.40
2014,10,22,19,44,10.40
2014,10,22,19,45,10.40
2014,10,22,19,46,10.40
2014,10,22,19,47,10.40
2014,10,22,19,48,10.30
2014,10,22,19,49,10.30
2014,10,22,19,50,10.30
2014,10,22,19,51,10.30
2014,10,22,19,52,10.20
2014,10,22,19,53,10.20
2014,10,22,19,54,10.20
2014,10,22,19,55,10.20
2014,10,22,19,56,10.10
2014,10,22,19,57,10.10
2014,10,22,19,58,10.10
2014,10,22,19,59,10.00
2014,10,22,20,00,10.00
2014,10,22,20,01,9.90
2014,10,22,20,02,9.90
2014,10,22,20,03,9.90
2014,10,22,20,04,9.90
2014,10,22,20,05,9.90
2014,10,22,20,06,9.90
2014,10,22,20,07,9.90
2014,10,22,20,08,9.90
2014,10,22,20,09,9.90
2014,10,22,20,10,9.90
2014,10,22,20,11,9.90
2014,10,22,20,12,9.90
2014,10,22,20,13,9.90
2014,10,22,20,14,9.90
2014,10,22,20,15,9.90
2014,10,22,20,16,9.90
2014,10,22,20,17,9.90
2014,10,22,20,18,9.90
2014,10,22,20,19,9.90
2014,10,22,20,20,9.90
2014,10,22,20,21,9.90
2014,10,22,20,22,9.90
2014,10,22,20,23,9.90
2014,10,22,20,24,9.90
2014,10,22,20,25,9.90
2014,10,22,20,26,9.90
2014,10,22,20,27,9.90
2014,10,22,20,28,9.90
2014,10,22,20,29,9.90
2014,10,22,20,30,9.90
2014,10,22,20,31,9.90
2014,10,22,20,32,9.90
2014,10,22,20,33,9.90
2014,10,22,20,34,9.90
2014,10,22,20,35,9.90
2014,10,22,20,36,9.90
2014,10,22,20,37,9.90
2014,10,22,20,38,9.90
2014,10,22,20,39,9.90
2014,10,22,20,40,9.90
2014,10,22,20,41,9.90
2014,10,22,20,42,9.90
2014,10,22,20,43,9.90
2014,10,22,20,44,9.90
2014,10,22,20,45,9.90
2014,10,22,20,46,9.90
2014,10,22,20,47,9.80
2014,10,22,20,48,9.80
2014,10,22,20,49,9.80
2014,10,22,20,50,9.80
2014,10,22,20,51,9.80
2014,10,22,20,52,9.80
2014,10,22,20,53,9.80
2014,10,22,20,54,9.70
2014,10,22,20,55,9.70
2014,10,22,20,56,9.70
2014,10,22,20,57,9.70
2014,10,22,20,58,9.70
2014,10,22,20,59,9.70
2014,10,22,21,00,9.70
2014,10,22,21,01,9.70
2014,10,22,21,02,9.70
2014,10,22,21,03,9.70
2014,10,22,21,04,9.60
2014,10,22,21,05,9.60
2014,10,22,21,06,9.60
2014,10,22,21,07,9.60
2014,10,22,21,08,9.60
2014,10,22,21,09,9.60
2014,10,22,21,10,9.60
2014,10,22,21,11,9.60
2014,10,22,21,12,9.50
2014,10,22,21,13,9.50
2014,10,22,21,14,9.50
2014,10,22,21,15,9.50
2014,10,22,21,16,9.50
2014,10,22,21,17,9.50
2014,10,22,21,18,9.50
2014,10,22,21,19,9.40
2014,10,22,21,20,9.40
2014,10,22,21,21,9.40
2014,10,22,21,22,9.40
2014,10,22,21,23,9.40
2014,10,22,21,24,9.40
2014,10,22,21,25,9.40
2014,10,22,21,26,9.40
2014,10,22,21,27,9.40
2014,10,22,21,28,9.40
2014,10,22,21,29,9.30
2014,10,22,21,30,9.30
2014,10,22,21,31,9.30
2014,10,22,21,32,9.30
2014,10,22,21,33,9.30
2014,10,22,21,34,9.30
2014,10,22,21,35,9.30
2014,10,22,21,36,9.30
2014,10,22,21,37,9.30
2014,10,22,21,38,9.30
2014,10,22,21,39,9.30
2014,10,22,21,40,9.30
2014,10,22,21,41,9.30
2014,10,22,21,42,9.30
2014,10,22,21,43,9.30
2014,10,22,21,44,9.30
2014,10,22,21,45,9.30
2014,10,22,21,46,9.30
2014,10,22,21,47,9.30
2014,10,22,21,48,9.30
2014,10,22,21,49,9.30
2014,10,22,21,50,9.30
2014,10,22,21,51,9.30
2014,10,22,21,52,9.20
2014,10,22,21,53,9.20
2014,10,22,21,54,9.20
2014,10,22,21,55,9.20
2014,10,22,21,56,9.20
2014,10,22,21,57,9.20
2014,10,22,21,58,9.20
2014,10,22,21,59,9.20
2014,10,22,22,00,9.20
2014,10,22,22,01,9.20
2014,10,22,22,02,9.20
2014,10,22,22,03,9.20
2014,10,22,22,04,9.20
2014,10,22,22,05,9.10
2014,10,22,22,06,9.10
2014,10,22,22,07,9.10
2014,10,22,22,08,9.10
2014,10,22,22,09,9.10
2014,10,22,22,10,9.10
2014,10,22,22,11,9.10
2014,10,22,22,12,9.10
2014,10,22,22,13,9.10
2014,10,22,22,14,9.10
2014,10,22,22,15,9.10
2014,10,22,22,16,9.10
2014,10,22,22,17,9.00
2014,10,22,22,18,9.00
2014,10,22,22,19,9.00
2014,10,22,22,20,9.00
2014,10,22,22,21,9.00
2014,10,22,22,22,8.90
2014,10,22,22,23,8.90
2014,10,22,22,24,8.90
2014,10,22,22,25,8.90
2014,10,22,22,26,8.90
2014,10,22,22,27,8.90
2014,10,22,22,28,8.90
2014,10,22,22,29,8.80
2014,10,22,22,30,8.80
2014,10,22,22,31,8.80
2014,10,22,22,32,8.80
2014,10,22,22,33,8.80
2014,10,22,22,34,8.80
2014,10,22,22,35,8.70
2014,10,22,22,36,8.70
2014,10,22,22,37,8.70
2014,10,22,22,38,8.70
2014,10,22,22,39,8.70
2014,10,22,22,40,8.70
2014,10,22,22,41,8.70
2014,10,22,22,42,8.60
2014,10,22,22,43,8.60
2014,10,22,22,44,8.60
2014,10,22,22,45,8.60
2014,10,22,22,46,8.60
2014,10,22,22,47,8.60
2014,10,22,22,48,8.60
2014,10,22,22,49,8.60
2014,10,22,22,50,8.60
2014,10,22,22,51,8.60
2014,10,22,22,52,8.50
2014,10,22,22,53,8.50
2014,10,22,22,54,8.50
2014,10,22,22,55,8.50
2014,10,22,22,56,8.50
2014,10,22,22,57,8.50
2014,10,22,22,58,8.50
2014,10,22,22,59,8.50
2014,10,22,23,00,8.50
2014,10,22,23,01,8.40
2014,10,22,23,02,8.40
2014,10,22,23,03,8.40
2014,10,22,23,04,8.40
2014,10,22,23,05,8.40
2014,10,22,23,06,8.50
2014,10,22,23,07,8.40
2014,10,22,23,08,8.40
2014,10,22,23,09,8.40
2014,10,22,23,10,8.40
2014,10,22,23,11,8.40
2014,10,22,23,12,8.40
2014,10,22,23,13,8.40
2014,10,22,23,14,8.40
2014,10,22,23,15,8.40
2014,10,22,23,16,8.40
2014,10,22,23,17,8.40
2014,10,22,23,18,8.40
2014,10,22,23,19,8.40
2014,10,22,23,20,8.40
2014,10,22,23,21,8.40
2014,10,22,23,22,8.40
2014,10,22,23,23,8.40
2014,10,22,23,24,8.40
2014,10,22,23,25,8.40
2014,10,22,23,26,8.40
2014,10,22,23,27,8.40
2014,10,22,23,28,8.40
2014,10,22,23,29,8.40
2014,10,22,23,30,8.40
2014,10,22,23,31,8.40
2014,10,22,23,32,8.40
2014,10,22,23,33,8.40
2014,10,22,23,34,8.40
2014,10,22,23,35,8.40
2014,10,22,23,36,8.40
2014,10,22,23,37,8.40
2014,10,22,23,38,8.40
2014,10,22,23,39,8.40
2014,10,22,23,40,8.40
2014,10,22,23,41,8.40
2014,10,22,23,42,8.40
2014,10,22,23,43,8.40
2014,10,22,23,44,8.40
2014,10,22,23,45,8.40
2014,10,22,23,46,8.40
2014,10,22,23,47,8.40
2014,10,22,23,48,8.40
2014,10,22,23,49,8.40
2014,10,22,23,50,8.40
2014,10,22,23,51,8.40
2014,10,22,23,52,8.40
2014,10,22,23,53,8.40
2014,10,22,23,54,8.40
2014,10,22,23,55,8.40
2014,10,22,23,56,8.40
2014,10,22,23,57,8.40
2014,10,22,23,58,8.40
2014,10,22,23,59,8.40
